QPF
0.00 0.00 0.00 0.00 0.00 0.00 0.00 0.01 0.01 0.01 0.00 0.01 0.01 0.01 0.01 0.01 0.00 0.01 0.01 0.01 0.00 0.00 0.00 0.01 0.01 0.01 0.01 0.01 0.01 0.01 0.01 0.00 0.00 0.01 0.01 0.02 0.02 0.01 0.01 0.01 0.00 0.00 0.01
0.00 0.00 0.00 0.00 0.00 0.00 0.00 0.00 0.00 0.00 0.00 0.00 0.00 0.00 0.01 0.01 0.00 0.00 0.01 0.00 0.00 0.00 0.00 0.00 0.00 0.01 0.01 0.01 0.01 0.01 0.01 0.00 0.00 0.00 0.00 0.01 0.01 0.01 0.01 0.01 0.01 0.01 0.01
0.00 0.00 0.00 0.00 0.00 0.00 0.00 0.00 0.00 0.00 0.00 0.00 0.01 0.00 0.00 0.00 0.00 0.00 0.00 0.00 0.00 0.00 0.00 0.00 0.00 0.00 0.00 0.01 0.01 0.01 0.00 0.00 0.00 0.00 0.00 0.00 0.01 0.01 0.01 0.01 0.01 0.01 0.01
0.00 0.00 0.00 0.00 0.00 0.00 0.00 0.00 0.00 0.00 0.00 0.00 0.00 0.00 0.00 0.01 0.00 0.00 0.00 0.00 0.00 0.00 0.00 0.00 0.00 0.00 0.00 0.00 0.00 0.00 0.00 0.00 0.00 0.00 0.00 0.00 0.00 0.01 0.01 0.01 0.01 0.01 0.01
0.00 0.00 0.00 0.00 0.00 0.00 0.00 0.00 0.00 0.00 0.00 0.00 0.00 0.00 0.01 0.01 0.00 0.00 0.00 0.00 0.00 0.00 0.00 0.00 0.00 0.00 0.00 0.00 0.00 0.00 0.00 0.00 0.00 0.00 0.00 0.00 0.00 0.01 0.01 0.01 0.01 0.01 0.01
0.00 0.00 0.00 0.00 0.00 0.00 0.00 0.00 0.00 0.00 0.00 0.00 0.00 0.00 0.00 0.00 0.00 0.00 0.00 0.00 0.00 0.00 0.00 0.00 0.00 0.00 0.00 0.00 0.00 0.00 0.00 0.00 0.00 0.00 0.00 0.00 0.00 0.01 0.01 0.01 0.00 0.01 0.01
0.00 0.00 0.00 0.00 0.00 0.00 0.00 0.00 0.00 0.00 0.00 0.00 0.00 0.00 0.00 0.00 0.00 0.00 0.00 0.00 0.00 0.00 0.00 0.00 0.00 0.00 0.00 0.00 0.00 0.00 0.00 0.00 0.00 0.00 0.00 0.00 0.00 0.00 0.00 0.00 0.00 0.00 0.00
0.00 0.00 0.00 0.00 0.00 0.00 0.00 0.00 0.00 0.00 0.00 0.00 0.00 0.00 0.00 0.00 0.00 0.00 0.00 0.00 0.00 0.00 0.00 0.00 0.00 0.00 0.00 0.00 0.00 0.00 0.00 0.00 0.00 0.00 0.00 0.00 0.00 0.00 0.00 0.00 0.00 0.00 0.00
0.00 0.00 0.00 0.00 0.00 0.00 0.00 0.00 0.00 0.00 0.00 0.00 0.00 0.00 0.00 0.00 0.00 0.00 0.00 0.00 0.00 0.00 0.00 0.00 0.00 0.00 0.00 0.00 0.00 0.00 0.00 0.00 0.00 0.00 0.00 0.00 0.00 0.00 0.00 0.00 0.00 0.00 0.00
0.00 0.00 0.00 0.00 0.00 0.00 0.00 0.00 0.00 0.00 0.00 0.00 0.00 0.00 0.00 0.00 0.00 0.00 0.00 0.00 0.00 0.00 0.00 0.00 0.00 0.00 0.00 0.00 0.00 0.00 0.00 0.00 0.00 0.00 0.00 0.00 0.00 0.00 0.00 0.00 0.00 0.00 0.00
0.00 0.00 0.00 0.00 0.00 0.00 0.00 0.00 0.00 0.00 0.00 0.00 0.00 0.00 0.00 0.00 0.00 0.00 0.00 0.00 0.00 0.00 0.00 0.00 0.00 0.00 0.00 0.00 0.00 0.00 0.00 0.00 0.00 0.00 0.00 0.00 0.00 0.00 0.00 0.00 0.00 0.00 0.00
0.00 0.00 0.00 0.00 0.00 0.00 0.00 0.00 0.00 0.00 0.00 0.00 0.00 0.00 0.00 0.00 0.00 0.00 0.00 0.00 0.00 0.00 0.00 0.00 0.00 0.00 0.00 0.00 0.00 0.00 0.00 0.00 0.00 0.00 0.00 0.00 0.00 0.00 0.00 0.00 0.00 0.00 0.00
0.00 0.00 0.00 0.00 0.00 0.00 0.00 0.00 0.00 0.00 0.00 0.00 0.00 0.00 0.00 0.00 0.00 0.00 0.00 0.00 0.00 0.00 0.00 0.00 0.00 0.00 0.00 0.00 0.00 0.00 0.00 0.00 0.00 0.00 0.00 0.00 0.00 0.00 0.00 0.00 0.00 0.00 0.00
0.00 0.00 0.00 0.00 0.00 0.00 0.00 0.00 0.00 0.00 0.00 0.00 0.00 0.00 0.00 0.00 0.00 0.00 0.00 0.00 0.00 0.00 0.00 0.00 0.00 0.00 0.00 0.00 0.00 0.00 0.00 0.00 0.00 0.00 0.00 0.00 0.00 0.00 0.00 0.00 0.00 0.00 0.00
0.00 0.00 0.00 0.00 0.00 0.00 0.00 0.00 0.00 0.00 0.00 0.00 0.00 0.00 0.00 0.00 0.00 0.00 0.00 0.00 0.00 0.00 0.00 0.00 0.00 0.00 0.00 0.00 0.00 0.00 0.00 0.00 0.00 0.00 0.00 0.00 0.00 0.00 0.00 0.00 0.00 0.00 0.00
0.00 0.00 0.00 0.00 0.00 0.00 0.00 0.00 0.00 0.00 0.00 0.00 0.00 0.00 0.00 0.00 0.00 0.00 0.00 0.00 0.00 0.00 0.00 0.00 0.00 0.00 0.00 0.00 0.00 0.00 0.00 0.00 0.00 0.00 0.00 0.00 0.00 0.00 0.00 0.00 0.00 0.00 0.00
0.00 0.00 0.00 0.00 0.00 0.00 0.00 0.00 0.00 0.00 0.00 0.00 0.00 0.00 0.00 0.00 0.00 0.00 0.00 0.00 0.00 0.00 0.00 0.00 0.00 0.00 0.00 0.00 0.00 0.00 0.00 0.00 0.00 0.00 0.00 0.00 0.00 0.00 0.00 0.00 0.00 0.00 0.00
0.00 0.00 0.00 0.00 0.00 0.00 0.00 0.00 0.00 0.00 0.00 0.00 0.00 0.00 0.00 0.00 0.00 0.00 0.00 0.00 0.00 0.00 0.00 0.00 0.00 0.00 0.00 0.00 0.00 0.00 0.00 0.00 0.00 0.00 0.00 0.00 0.00 0.00 0.00 0.00 0.00 0.00 0.00
0.00 0.00 0.00 0.00 0.00 0.00 0.00 0.00 0.00 0.00 0.00 0.00 0.00 0.00 0.00 0.00 0.00 0.00 0.00 0.00 0.00 0.00 0.00 0.00 0.00 0.00 0.00 0.00 0.00 0.00 0.00 0.00 0.00 0.00 0.00 0.00 0.00 0.00 0.00 0.00 0.00 0.00 0.00
0.00 0.00 0.00 0.00 0.00 0.00 0.00 0.00 0.00 0.00 0.00 0.00 0.00 0.00 0.00 0.00 0.00 0.00 0.00 0.00 0.00 0.00 0.00 0.00 0.00 0.00 0.00 0.00 0.00 0.00 0.00 0.00 0.00 0.00 0.00 0.00 0.00 0.00 0.00 0.00 0.00 0.00 0.00
0.00 0.00 0.00 0.00 0.00 0.00 0.00 0.00 0.00 0.00 0.00 0.00 0.00 0.00 0.00 0.00 0.00 0.00 0.00 0.00 0.00 0.00 0.00 0.00 0.00 0.00 0.00 0.00 0.00 0.00 0.00 0.00 0.00 0.00 0.00 0.00 0.00 0.00 0.00 0.00 0.00 0.00 0.00
0.00 0.00 0.00 0.00 0.00 0.00 0.00 0.00 0.00 0.00 0.00 0.00 0.00 0.00 0.00 0.00 0.00 0.00 0.00 0.00 0.00 0.00 0.00 0.00 0.00 0.00 0.00 0.00 0.00 0.00 0.00 0.00 0.00 0.00 0.00 0.00 0.00 0.00 0.00 0.00 0.00 0.00 0.00
0.00 0.00 0.00 0.00 0.00 0.00 0.00 0.00 0.00 0.00 0.00 0.00 0.00 0.00 0.00 0.00 0.00 0.00 0.00 0.00 0.00 0.00 0.00 0.00 0.00 0.00 0.00 0.00 0.00 0.00 0.00 0.00 0.00 0.00 0.00 0.00 0.00 0.00 0.00 0.00 0.00 0.00 0.00
0.00 0.00 0.00 0.00 0.00 0.00 0.00 0.00 0.00 0.00 0.00 0.00 0.00 0.00 0.00 0.00 0.00 0.00 0.00 0.00 0.00 0.00 0.00 0.00 0.00 0.00 0.00 0.00 0.00 0.00 0.00 0.00 0.00 0.00 0.00 0.00 0.00 0.00 0.00 0.00 0.00 0.00 0.00
0.00 0.00 0.00 0.00 0.00 0.00 0.00 0.00 0.00 0.00 0.00 0.00 0.00 0.00 0.00 0.00 0.00 0.00 0.00 0.00 0.00 0.00 0.00 0.00 0.00 0.00 0.00 0.00 0.00 0.00 0.00 0.00 0.00 0.00 0.00 0.00 0.00 0.00 0.00 0.00 0.00 0.00 0.00
0.00 0.00 0.00 0.00 0.00 0.00 0.00 0.00 0.00 0.00 0.00 0.00 0.00 0.00 0.00 0.00 0.00 0.00 0.00 0.00 0.00 0.00 0.00 0.00 0.00 0.00 0.00 0.00 0.00 0.00 0.00 0.00 0.00 0.00 0.00 0.00 0.00 0.00 0.00 0.00 0.00 0.00 0.00
MSLP
1017.91 1018.07 1018.28 1018.56 1018.90 1019.28 1019.66 1020.01 1020.30 1020.52 1020.67 1020.78 1020.88 1021.00 1021.15 1021.33 1021.53 1021.73 1021.90 1022.02 1022.09 1022.11 1022.09 1022.07 1022.06 1022.06 1022.08 1022.10 1022.10 1022.06 1021.99 1021.87 1021.72 1021.57 1021.43 1021.31 1021.23 1021.18 1021.16 1021.13 1021.10 1021.04 1020.96
1017.53 1017.75 1018.04 1018.41 1018.84 1019.30 1019.74 1020.13 1020.44 1020.67 1020.84 1020.96 1021.09 1021.24 1021.43 1021.66 1021.90 1022.13 1022.33 1022.48 1022.56 1022.60 1022.60 1022.60 1022.60 1022.61 1022.62 1022.62 1022.59 1022.52 1022.41 1022.27 1022.11 1021.96 1021.83 1021.74 1021.69 1021.67 1021.66 1021.65 1021.61 1021.55 1021.46
1017.16 1017.45 1017.82 1018.27 1018.78 1019.31 1019.80 1020.23 1020.57 1020.83 1021.01 1021.17 1021.32 1021.51 1021.74 1021.99 1022.26 1022.50 1022.70 1022.84 1022.92 1022.96 1022.97 1022.98 1022.99 1023.01 1023.02 1023.02 1022.97 1022.89 1022.76 1022.61 1022.46 1022.33 1022.23 1022.18 1022.16 1022.17 1022.18 1022.17 1022.13 1022.06 1021.96
1016.85 1017.20 1017.64 1018.17 1018.75 1019.32 1019.86 1020.32 1020.69 1020.97 1021.18 1021.37 1021.56 1021.78 1022.03 1022.30 1022.56 1022.79 1022.97 1023.08 1023.15 1023.18 1023.19 1023.21 1023.24 1023.28 1023.31 1023.31 1023.27 1023.19 1023.06 1022.93 1022.80 1022.69 1022.63 1022.61 1022.63 1022.65 1022.67 1022.66 1022.62 1022.53 1022.43
1016.63 1017.03 1017.53 1018.11 1018.74 1019.35 1019.92 1020.40 1020.78 1021.08 1021.32 1021.53 1021.76 1022.00 1022.26 1022.53 1022.78 1022.98 1023.12 1023.21 1023.26 1023.28 1023.30 1023.34 1023.40 1023.47 1023.53 1023.55 1023.53 1023.46 1023.36 1023.24 1023.13 1023.05 1023.02 1023.03 1023.06 1023.09 1023.11 1023.09 1023.03 1022.94 1022.83
1016.50 1016.94 1017.48 1018.10 1018.75 1019.39 1019.96 1020.44 1020.83 1021.13 1021.39 1021.62 1021.86 1022.12 1022.40 1022.66 1022.89 1023.07 1023.19 1023.25 1023.29 1023.32 1023.36 1023.44 1023.53 1023.64 1023.74 1023.80 1023.80 1023.75 1023.66 1023.56 1023.46 1023.40 1023.39 1023.40 1023.44 1023.47 1023.47 1023.43 1023.36 1023.25 1023.14
1016.45 1016.91 1017.48 1018.11 1018.77 1019.40 1019.97 1020.44 1020.81 1021.11 1021.37 1021.62 1021.88 1022.15 1022.43 1022.70 1022.92 1023.09 1023.19 1023.25 1023.29 1023.34 1023.42 1023.54 1023.69 1023.84 1023.98 1024.06 1024.09 1024.05 1023.97 1023.88 1023.79 1023.73 1023.71 1023.72 1023.75 1023.75 1023.73 1023.67 1023.58 1023.47 1023.36
1016.44 1016.92 1017.49 1018.13 1018.78 1019.40 1019.94 1020.38 1020.74 1021.02 1021.28 1021.53 1021.80 1022.09 1022.39 1022.66 1022.89 1023.06 1023.18 1023.25 1023.31 1023.39 1023.51 1023.67 1023.86 1024.06 1024.22 1024.33 1024.37 1024.34 1024.27 1024.17 1024.07 1024.01 1023.98 1023.97 1023.97 1023.95 1023.90 1023.81 1023.70 1023.58 1023.47
1016.45 1016.91 1017.48 1018.12 1018.76 1019.35 1019.86 1020.28 1020.61 1020.89 1021.14 1021.40 1021.68 1021.99 1022.30 1022.59 1022.84 1023.03 1023.16 1023.25 1023.35 1023.46 1023.61 1023.81 1024.03 1024.25 1024.43 1024.55 1024.59 1024.56 1024.48 1024.37 1024.27 1024.19 1024.14 1024.12 1024.09 1024.04 1023.97 1023.85 1023.72 1023.59 1023.48
1016.42 1016.88 1017.44 1018.06 1018.69 1019.26 1019.76 1020.15 1020.47 1020.73 1020.98 1021.25 1021.55 1021.88 1022.21 1022.52 1022.79 1023.00 1023.15 1023.26 1023.37 1023.51 1023.68 1023.89 1024.12 1024.34 1024.52 1024.64 1024.67 1024.64 1024.55 1024.43 1024.33 1024.24 1024.19 1024.15 1024.11 1024.04 1023.94 1023.81 1023.66 1023.51 1023.39
1016.34 1016.78 1017.34 1017.96 1018.57 1019.14 1019.62 1020.00 1020.32 1020.58 1020.84 1021.13 1021.44 1021.79 1022.14 1022.47 1022.75 1022.96 1023.12 1023.25 1023.36 1023.49 1023.66 1023.86 1024.07 1024.28 1024.45 1024.55 1024.57 1024.53 1024.44 1024.33 1024.23 1024.15 1024.09 1024.06 1024.01 1023.94 1023.83 1023.68 1023.51 1023.34 1023.20
1016.20 1016.64 1017.20 1017.81 1018.42 1018.98 1019.46 1019.85 1020.17 1020.46 1020.73 1021.03 1021.36 1021.72 1022.08 1022.41 1022.70 1022.91 1023.06 1023.17 1023.27 1023.38 1023.51 1023.68 1023.86 1024.04 1024.18 1024.26 1024.28 1024.23 1024.14 1024.04 1023.96 1023.89 1023.85 1023.82 1023.79 1023.72 1023.61 1023.45 1023.27 1023.08 1022.91
1016.02 1016.47 1017.02 1017.63 1018.24 1018.81 1019.30 1019.70 1020.04 1020.34 1020.64 1020.96 1021.30 1021.67 1022.02 1022.35 1022.62 1022.81 1022.94 1023.02 1023.08 1023.15 1023.24 1023.36 1023.50 1023.64 1023.75 1023.81 1023.82 1023.78 1023.70 1023.61 1023.54 1023.49 1023.47 1023.45 1023.43 1023.37 1023.27 1023.11 1022.92 1022.72 1022.53
1015.85 1016.29 1016.84 1017.45 1018.06 1018.62 1019.12 1019.55 1019.91 1020.24 1020.55 1020.88 1021.23 1021.59 1021.94 1022.24 1022.48 1022.65 1022.75 1022.79 1022.81 1022.84 1022.88 1022.95 1023.05 1023.15 1023.23 1023.28 1023.28 1023.24 1023.17 1023.09 1023.02 1022.98 1022.96 1022.95 1022.93 1022.88 1022.80 1022.66 1022.48 1022.27 1022.07
1015.73 1016.16 1016.69 1017.28 1017.88 1018.45 1018.95 1019.39 1019.77 1020.12 1020.45 1020.79 1021.13 1021.47 1021.79 1022.07 1022.28 1022.42 1022.49 1022.50 1022.49 1022.48 1022.49 1022.53 1022.59 1022.67 1022.73 1022.76 1022.75 1022.70 1022.63 1022.54 1022.45 1022.39 1022.35 1022.33 1022.31 1022.27 1022.20 1022.08 1021.92 1021.73 1021.53
1015.71 1016.12 1016.62 1017.18 1017.75 1018.30 1018.80 1019.25 1019.64 1019.99 1020.33 1020.65 1020.98 1021.30 1021.59 1021.84 1022.02 1022.14 1022.19 1022.20 1022.17 1022.15 1022.15 1022.17 1022.22 1022.27 1022.32 1022.34 1022.32 1022.25 1022.15 1022.02 1021.90 1021.78 1021.70 1021.64 1021.59 1021.55 1021.49 1021.40 1021.27 1021.11 1020.93
1015.82 1016.19 1016.65 1017.16 1017.69 1018.21 1018.69 1019.13 1019.52 1019.88 1020.20 1020.50 1020.80 1021.08 1021.34 1021.56 1021.73 1021.84 1021.89 1021.91 1021.90 1021.89 1021.90 1021.93 1021.97 1022.03 1022.07 1022.08 1022.03 1021.93 1021.77 1021.59 1021.39 1021.20 1021.04 1020.91 1020.82 1020.76 1020.70 1020.64 1020.56 1020.45 1020.30
1016.08 1016.40 1016.79 1017.24 1017.72 1018.20 1018.66 1019.08 1019.46 1019.79 1020.09 1020.36 1020.62 1020.86 1021.08 1021.28 1021.44 1021.55 1021.63 1021.67 1021.70 1021.72 1021.76 1021.81 1021.87 1021.93 1021.97 1021.96 1021.88 1021.73 1021.52 1021.25 1020.96 1020.67 1020.41 1020.20 1020.05 1019.96 1019.90 1019.86 1019.82 1019.76 1019.66
1016.46 1016.72 1017.05 1017.44 1017.86 1018.30 1018.72 1019.12 1019.47 1019.78 1020.04 1020.28 1020.48 1020.68 1020.86 1021.03 1021.18 1021.31 1021.41 1021.49 1021.57 1021.64 1021.71 1021.79 1021.88 1021.94 1021.97 1021.94 1021.83 1021.64 1021.36 1021.01 1020.62 1020.23 1019.86 1019.56 1019.34 1019.19 1019.12 1019.09 1019.08 1019.07 1019.01
1016.93 1017.14 1017.40 1017.72 1018.09 1018.49 1018.88 1019.26 1019.58 1019.86 1020.08 1020.27 1020.42 1020.56 1020.70 1020.84 1020.99 1021.12 1021.25 1021.37 1021.49 1021.60 1021.71 1021.81 1021.91 1021.98 1022.00 1021.96 1021.82 1021.58 1021.25 1020.83 1020.36 1019.87 1019.41 1019.02 1018.72 1018.51 1018.41 1018.37 1018.38 1018.39 1018.37
1017.44 1017.60 1017.80 1018.07 1018.40 1018.76 1019.13 1019.48 1019.79 1020.03 1020.22 1020.35 1020.45 1020.54 1020.64 1020.74 1020.87 1021.00 1021.14 1021.29 1021.43 1021.56 1021.69 1021.80 1021.90 1021.97 1021.98 1021.93 1021.78 1021.52 1021.15 1020.69 1020.16 1019.60 1019.07 1018.59 1018.21 1017.95 1017.79 1017.73 1017.72 1017.73 1017.72
1017.91 1018.04 1018.21 1018.44 1018.74 1019.08 1019.43 1019.77 1020.05 1020.27 1020.42 1020.51 1020.57 1020.61 1020.65 1020.72 1020.81 1020.93 1021.07 1021.21 1021.35 1021.48 1021.60 1021.70 1021.79 1021.85 1021.86 1021.80 1021.65 1021.40 1021.03 1020.56 1020.00 1019.41 1018.82 1018.28 1017.83 1017.49 1017.27 1017.15 1017.10 1017.09 1017.06
1018.31 1018.42 1018.57 1018.78 1019.06 1019.39 1019.73 1020.06 1020.34 1020.54 1020.67 1020.72 1020.74 1020.73 1020.73 1020.76 1020.81 1020.90 1021.01 1021.12 1021.23 1021.33 1021.42 1021.50 1021.56 1021.60 1021.60 1021.55 1021.42 1021.19 1020.85 1020.40 1019.86 1019.26 1018.64 1018.05 1017.54 1017.12 1016.82 1016.62 1016.51 1016.43 1016.36
1018.58 1018.70 1018.84 1019.05 1019.32 1019.64 1019.99 1020.31 1020.59 1020.78 1020.89 1020.93 1020.92 1020.88 1020.84 1020.82 1020.84 1020.88 1020.95 1021.01 1021.07 1021.12 1021.16 1021.19 1021.22 1021.23 1021.23 1021.18 1021.08 1020.89 1020.60 1020.20 1019.69 1019.11 1018.48 1017.86 1017.29 1016.80 1016.41 1016.11 1015.91 1015.76 1015.63
1018.74 1018.87 1019.03 1019.23 1019.50 1019.82 1020.17 1020.49 1020.77 1020.96 1021.07 1021.10 1021.07 1021.01 1020.94 1020.90 1020.87 1020.87 1020.88 1020.89 1020.89 1020.87 1020.85 1020.82 1020.80 1020.78 1020.77 1020.74 1020.67 1020.52 1020.29 1019.94 1019.48 1018.93 1018.30 1017.66 1017.03 1016.47 1015.98 1015.59 1015.29 1015.05 1014.86
1018.79 1018.95 1019.12 1019.34 1019.61 1019.93 1020.27 1020.59 1020.86 1021.06 1021.17 1021.20 1021.17 1021.11 1021.03 1020.96 1020.90 1020.85 1020.81 1020.76 1020.69 1020.61 1020.52 1020.43 1020.36 1020.31 1020.28 1020.25 1020.20 1020.10 1019.91 1019.62 1019.20 1018.67 1018.06 1017.39 1016.72 1016.09 1015.52 1015.03 1014.64 1014.33 1014.08
Thickness
5733 5731 5727 5724 5721 5718 5716 5714 5712 5710 5708 5706 5705 5703 5702 5701 5700 5700 5699 5699 5698 5698 5698 5698 5698 5699 5699 5699 5699 5699 5699 5700 5700 5702 5703 5704 5704 5704 5705 5705 5706 5706 5707
5737 5731 5726 5722 5719 5716 5713 5711 5708 5706 5704 5702 5700 5699 5697 5696 5695 5694 5694 5693 5693 5693 5693 5692 5692 5692 5692 5692 5692 5693 5693 5694 5695 5696 5696 5697 5698 5698 5699 5699 5700 5700 5701
5737 5729 5724 5720 5717 5714 5711 5708 5705 5702 5700 5698 5696 5695 5693 5691 5690 5689 5689 5688 5687 5687 5687 5687 5686 5686 5686 5686 5686 5686 5687 5688 5689 5691 5690 5691 5692 5692 5692 5693 5693 5694 5695
5735 5727 5722 5718 5715 5711 5708 5705 5702 5699 5697 5694 5692 5690 5689 5687 5686 5684 5683 5682 5682 5681 5681 5681 5681 5681 5680 5680 5680 5681 5681 5683 5684 5685 5684 5684 5685 5686 5686 5687 5687 5688 5688
5733 5726 5721 5716 5712 5709 5705 5702 5699 5696 5693 5691 5688 5686 5685 5683 5681 5680 5678 5677 5677 5676 5676 5676 5676 5676 5675 5675 5675 5675 5676 5677 5679 5679 5679 5679 5679 5681 5681 5680 5681 5681 5682
5731 5726 5719 5714 5710 5706 5703 5699 5696 5693 5690 5687 5685 5683 5681 5679 5677 5675 5674 5673 5672 5672 5672 5671 5671 5671 5671 5671 5671 5671 5671 5672 5674 5674 5674 5674 5674 5675 5675 5675 5675 5675 5675
5730 5725 5717 5712 5708 5704 5700 5696 5693 5690 5687 5684 5682 5679 5677 5675 5673 5671 5670 5669 5668 5668 5667 5667 5667 5666 5666 5666 5666 5666 5667 5667 5669 5669 5669 5669 5669 5670 5670 5670 5670 5669 5669
5730 5724 5716 5710 5706 5701 5698 5694 5690 5687 5684 5681 5678 5676 5674 5672 5670 5668 5666 5665 5664 5664 5663 5662 5662 5662 5662 5662 5662 5662 5662 5663 5664 5665 5665 5664 5664 5665 5665 5664 5664 5664 5664
5729 5722 5714 5708 5703 5699 5695 5691 5687 5684 5681 5678 5675 5673 5671 5669 5667 5665 5663 5662 5661 5660 5659 5659 5658 5658 5658 5658 5658 5658 5658 5659 5659 5660 5660 5660 5659 5660 5660 5659 5659 5659 5659
5726 5720 5713 5706 5701 5697 5692 5688 5684 5681 5678 5675 5672 5670 5668 5665 5664 5662 5661 5659 5657 5656 5656 5655 5654 5654 5654 5654 5654 5654 5654 5654 5655 5656 5656 5655 5655 5655 5655 5655 5654 5654 5654
5721 5718 5713 5706 5700 5695 5690 5685 5681 5678 5674 5672 5669 5666 5664 5662 5661 5659 5658 5656 5654 5653 5652 5651 5651 5650 5650 5650 5650 5650 5650 5651 5651 5652 5652 5651 5650 5650 5650 5650 5650 5650 5650
5714 5713 5711 5706 5700 5694 5689 5684 5679 5675 5671 5668 5666 5663 5660 5659 5658 5656 5654 5652 5650 5649 5648 5647 5647 5646 5646 5647 5647 5646 5646 5647 5647 5648 5648 5647 5646 5646 5646 5646 5646 5646 5646
5713 5710 5708 5704 5699 5693 5687 5682 5677 5673 5669 5665 5663 5660 5657 5655 5654 5652 5649 5647 5646 5644 5643 5643 5642 5642 5642 5642 5642 5641 5642 5642 5642 5643 5642 5642 5641 5641 5641 5641 5641 5641 5641
5713 5708 5705 5701 5696 5691 5685 5680 5675 5671 5667 5663 5660 5657 5654 5652 5649 5647 5646 5644 5642 5640 5639 5638 5637 5637 5637 5637 5637 5637 5637 5637 5637 5637 5637 5636 5636 5635 5635 5636 5636 5636 5636
5711 5706 5701 5697 5692 5687 5682 5677 5673 5669 5665 5661 5657 5654 5651 5648 5645 5642 5641 5639 5638 5636 5635 5633 5632 5632 5632 5632 5632 5632 5632 5631 5631 5632 5632 5631 5630 5629 5629 5630 5630 5630 5630
5708 5703 5698 5694 5689 5683 5678 5673 5669 5665 5661 5658 5654 5650 5647 5644 5641 5638 5636 5634 5632 5631 5630 5628 5627 5626 5626 5626 5626 5626 5626 5626 5626 5626 5627 5627 5626 5625 5624 5624 5624 5625 5625
5705 5701 5695 5690 5685 5679 5674 5669 5665 5661 5657 5653 5650 5646 5642 5639 5636 5634 5631 5629 5627 5626 5624 5623 5621 5620 5620 5620 5620 5620 5620 5621 5621 5621 5621 5622 5622 5621 5619 5618 5618 5618 5618
5701 5695 5690 5686 5681 5675 5670 5665 5661 5657 5653 5649 5645 5641 5638 5635 5631 5629 5626 5623 5621 5620 5619 5617 5615 5613 5612 5612 5613 5614 5614 5615 5616 5616 5616 5616 5616 5616 5615 5613 5611 5610 5610
5694 5689 5683 5679 5674 5670 5665 5660 5655 5651 5647 5643 5639 5636 5633 5629 5626 5623 5620 5618 5616 5614 5612 5610 5608 5606 5605 5604 5605 5606 5607 5608 5609 5610 5611 5611 5610 5610 5609 5607 5605 5603 5602
5686 5682 5676 5672 5668 5663 5659 5654 5648 5644 5640 5636 5633 5629 5626 5623 5620 5617 5614 5611 5609 5607 5604 5602 5601 5599 5597 5596 5597 5599 5600 5601 5602 5604 5605 5606 5605 5603 5601 5600 5598 5596 5594
5676 5673 5668 5664 5660 5655 5650 5644 5639 5634 5631 5628 5625 5622 5619 5616 5613 5610 5607 5604 5601 5599 5597 5595 5593 5591 5589 5588 5586 5587 5592 5595 5598 5600 5601 5601 5599 5597 5595 5592 5590 5588 5586
5667 5664 5660 5656 5651 5647 5642 5637 5633 5628 5624 5621 5618 5615 5612 5609 5606 5604 5600 5597 5595 5592 5590 5588 5586 5583 5581 5579 5574 5571 5573 5583 5590 5595 5594 5592 5591 5589 5587 5584 5580 5578 5575
5657 5655 5652 5647 5643 5639 5634 5629 5624 5620 5616 5612 5609 5607 5605 5602 5600 5597 5594 5591 5588 5586 5583 5581 5578 5575 5572 5570 5566 5559 5554 5558 5568 5579 5580 5578 5577 5575 5574 5572 5570 5567 5564
5650 5647 5644 5639 5634 5630 5626 5621 5616 5611 5607 5604 5602 5600 5598 5596 5593 5590 5587 5584 5581 5579 5576 5574 5572 5568 5563 5559 5556 5553 5550 5546 5543 5551 5562 5564 5562 5559 5557 5556 5555 5554 5552
5643 5639 5635 5631 5626 5622 5618 5613 5608 5603 5600 5597 5595 5593 5590 5589 5586 5583 5580 5576 5573 5570 5568 5565 5562 5559 5554 5550 5546 5542 5539 5536 5532 5528 5538 5543 5545 5544 5542 5540 5538 5537 5535
5635 5632 5628 5623 5618 5614 5609 5605 5600 5595 5591 5588 5585 5582 5581 5579 5578 5575 5572 5568 5565 5562 5559 5556 5552 5548 5544 5540 5535 5531 5526 5521 5518 5514 5517 5522 5525 5527 5525 5523 5519 5516 5513